This is the latest recevied weather packets stored in our database for station/object KY4GW. If no packets are shown the sender has not sent any weather packets the latest 10 day(s).
| Time | Temp. | Humidity | Pressure | Rain* | Wind** | Luminosity | Snow |
|---|---|---|---|---|---|---|---|
| 1777903044 | 13.33° C | 89% | 1013.8 hPa | 1.52 mm | - | 9 W/m² | - |
| 1777902438 | 12.22° C | 90% | 1013.8 hPa | 0.51 mm | - | 7 W/m² | - |
| 1777902134 | 11.67° C | 89% | 1015.5 hPa | 0.25 mm | - | 9 W/m² | - |
| 1777901833 | 11.11° C | 93% | 1015.5 hPa | 0.25 mm | - | 13 W/m² | - |
| 1777901530 | 11.11° C | 93% | 1015.5 hPa | 0 mm | - | 10 W/m² | - |
| 1777901228 | 11.11° C | 92% | 1014.8 hPa | 0 mm | - | 12 W/m² | - |
| 1777900924 | 11.67° C | 91% | 1014.8 hPa | 0 mm | - | 30 W/m² | - |
| 1777900622 | 11.11° C | 90% | 1014.8 hPa | 0 mm | - | 47 W/m² | - |
| 1777900318 | 11.67° C | 90% | 1015.1 hPa | 0 mm | - | 72 W/m² | - |
| 1777900015 | 11.67° C | 89% | 1015.1 hPa | 0 mm | - | 99 W/m² | - |
| 1777899712 | 11.11° C | 89% | 1015.1 hPa | 0 mm | - | 109 W/m² | - |
| 1777898804 | 10.56° C | 91% | 1015.5 hPa | 1.02 mm | - | 59 W/m² | - |
| 1777898199 | 10.56° C | 91% | 1015.5 hPa | 0.76 mm | - | 23 W/m² | - |
| 1777897896 | 10.56° C | 89% | 1015.5 hPa | 0.51 mm | - | 16 W/m² | - |
| 1777897287 | 10.56° C | 90% | 1015.8 hPa | 0 mm | - | 9 W/m² | - |
| 1777896984 | 10.56° C | 89% | 1015.1 hPa | 0 mm | - | 9 W/m² | - |
| 1777896681 | 10.56° C | 89% | 1015.1 hPa | 0 mm | - | 13 W/m² | - |
| 1777896378 | 10.56° C | 93% | 1015.1 hPa | 0 mm | - | 16 W/m² | - |
| 1777896076 | 10.56° C | 94% | 1015.1 hPa | 0 mm | - | 25 W/m² | - |
| 1777895774 | 10.56° C | 94% | 1014.8 hPa | 0 mm | - | 32 W/m² | - |
| 1777895471 | 10.56° C | 94% | 1014.8 hPa | 0 mm | - | 37 W/m² | - |
| 1777894563 | 10.56° C | 94% | 1014.8 hPa | 0 mm | - | 37 W/m² | - |
| 1777894260 | 10° C | 94% | 1014.4 hPa | 0 mm | - | 38 W/m² | - |
| 1777893957 | 10.56° C | 95% | 1014.4 hPa | 0 mm | - | 32 W/m² | - |
| 1777893653 | 10° C | 95% | 1014.4 hPa | 0 mm | - | 23 W/m² | - |
* Rain latest hour (hover to see other rain measurements)
** Current wind speed in m/s (hover to see current wind gust speed)